Dewpoint
48 48 48 48 48 47 47 47 47 47 47 46 46 46 47 46 46 42 36 34 46 48 47 41 33 31 34 49 47 42 38 29 30 28 27 31 28 27 20 30 50 51 48 52 60
47 47 47 47 47 47 47 47 46 46 46 46 46 46 46 47 44 41 45 48 45 44 42 42 41 40 29 41 47 38 36 34 32 31 30 28 28 26 17 35 47 51 54 58 58
47 47 47 46 46 46 46 46 46 46 45 45 46 46 46 47 35 39 47 45 44 41 40 36 37 37 38 31 39 43 34 34 31 30 31 30 27 25 19 21 43 48 52 56 56
47 47 46 46 46 46 46 45 45 44 44 44 45 46 46 45 -6 46 44 41 36 33 31 29 29 28 34 35 35 33 37 37 35 36 36 33 31 28 23 20 36 52 53 55 55
47 46 46 46 46 45 45 44 44 44 44 44 45 44 44 35 32 37 39 34 32 31 30 30 29 28 26 30 33 33 34 36 37 39 38 36 32 27 25 30 51 53 52 54 55
46 46 46 46 46 45 45 44 43 43 44 45 44 43 40 21 35 34 33 32 32 32 31 31 30 29 29 29 30 31 33 34 36 36 35 32 30 27 31 48 52 52 51 54 54
46 46 46 46 45 45 44 43 43 44 45 46 42 41 39 29 33 34 31 28 30 30 30 32 32 31 31 29 32 34 30 30 33 34 33 31 27 24 37 51 49 49 49 53 54
46 46 46 45 45 44 44 43 44 42 43 40 40 40 31 34 35 31 28 27 29 30 31 32 33 33 33 33 31 28 29 27 25 32 35 30 25 24 43 48 47 47 48 53 52
46 46 46 45 44 44 44 42 38 38 33 32 37 36 28 32 23 26 28 27 28 30 32 33 33 32 34 31 28 27 18 24 29 31 32 28 23 23 36 45 46 47 47 51 51
45 45 45 45 44 44 39 38 35 31 30 27 29 25 24 21 26 27 28 28 32 33 33 31 30 29 31 29 19 19 23 26 27 28 32 28 21 22 27 41 44 47 47 49 49
45 45 45 44 43 41 30 29 24 14 30 26 27 27 25 27 29 25 28 34 35 33 29 34 29 24 24 27 29 26 23 26 31 30 28 30 30 22 23 37 42 46 46 47 48
45 45 45 44 43 35 31 29 33 30 26 30 30 31 31 30 25 30 35 31 32 29 31 30 26 26 27 30 30 28 25 25 29 29 27 27 25 22 25 32 41 45 45 46 47
45 45 45 45 42 33 31 31 38 37 28 24 26 25 21 23 23 32 36 34 32 29 29 27 27 32 29 30 27 27 24 25 26 30 26 26 20 22 30 34 43 45 45 46 46
45 44 45 45 23 32 29 32 38 38 17 6 15 19 22 23 24 35 38 34 32 29 29 29 33 32 30 28 27 23 27 25 27 28 21 27 14 22 27 32 40 41 43 45 46
44 44 44 42 29 27 28 34 38 37 -14 9 17 22 23 21 23 24 37 33 28 27 29 22 26 28 29 27 26 23 29 28 30 28 27 26 19 20 29 30 35 39 40 39 38
44 43 44 34 30 30 32 37 35 1 -11 14 19 19 22 22 22 26 28 30 34 28 29 27 30 33 30 33 32 33 30 31 30 25 20 25 21 19 26 28 34 37 36 36 36
44 43 43 39 23 31 36 32 6 -15 16 13 18 20 22 19 20 25 24 23 23 19 17 23 25 27 32 29 31 29 24 19 18 18 14 25 21 21 24 28 32 35 34 34 34
45 42 37 32 30 33 26 11 -13 16 17 20 21 22 19 20 18 23 22 21 24 24 20 19 15 24 30 30 28 27 26 19 12 14 18 25 18 21 28 29 32 34 33 33 33
43 36 27 26 33 35 14 3 11 16 19 21 21 19 18 20 20 21 20 22 24 26 19 19 19 27 29 31 29 24 21 22 21 23 18 19 18 22 28 28 28 28 30 30 30
38 35 26 31 34 21 15 14 17 20 23 24 18 21 19 20 18 19 18 23 22 26 27 26 18 27 29 28 27 24 26 16 19 14 13 18 19 18 20 26 27 26 26 27 29
34 24 26 33 27 17 4 13 18 19 23 23 22 22 21 20 18 20 18 19 23 24 25 26 23 20 26 24 25 25 22 21 19 19 17 15 19 21 21 23 27 25 25 25 27
31 11 29 28 10 19 12 16 20 19 21 23 27 26 23 21 20 21 19 19 24 25 21 25 25 18 21 23 30 30 27 25 16 16 18 16 17 22 25 25 25 26 23 23 25
25 25 34 18 -4 11 16 15 20 19 20 20 21 24 23 20 18 19 20 21 21 24 23 24 19 15 14 18 21 26 25 25 24 20 19 15 15 26 25 24 25 24 23 24 24
28 14 24 26 23 14 15 16 18 21 20 21 22 22 22 20 20 18 19 20 21 25 24 27 22 19 16 19 23 22 21 21 21 18 16 16 19 22 23 23 23 22 22 22 23
29 25 22 15 20 19 19 21 18 16 19 22 19 20 22 19 19 19 20 20 21 24 20 21 18 21 21 20 21 21 21 20 19 20 20 18 20 22 22 24 23 20 20 22 23
29 24 27 23 22 21 22 21 18 18 19 18 19 21 23 21 21 20 22 21 19 22 18 18 17 18 19 18 21 20 20 21 21 21 20 19 18 19 23 24 22 20 20 20 20
33 32 24 25 23 21 22 18 18 20 18 21 22 22 22 22 25 25 25 27 26 24 21 17 16 16 17 16 17 16 17 19 22 20 21 19 20 23 23 22 21 22 20 20 25
Wind_Speed
20 20 20 21 23 23 23 24 24 23 23 24 24 24 24 24 23 5 5 4 4 8 7 8 7 7 5 6 6 7 9 24 14 16 13 9 5 3 2 6 4 4 11 14 23
20 21 22 22 24 25 25 25 24 24 23 23 24 23 22 19 13 6 7 8 4 9 7 9 8 11 6 5 11 19 19 15 5 11 3 19 6 6 2 5 3 6 11 27 28
20 22 22 23 24 26 26 26 25 24 24 24 23 21 18 14 4 3 4 7 6 8 5 6 6 5 5 6 9 18 36 21 3 6 7 9 10 4 4 10 9 20 28 26 27
22 22 23 24 26 27 28 27 25 24 23 21 19 17 15 5 8 2 6 5 8 10 8 9 7 9 5 9 5 19 34 24 15 14 9 9 12 19 5 5 10 26 33 28 25
23 24 25 26 27 28 30 29 26 24 21 18 16 13 5 5 4 5 7 5 5 5 7 8 8 9 12 7 12 27 28 22 20 15 22 24 24 17 15 3 18 23 26 26 22
23 25 26 28 29 30 30 31 28 25 21 15 10 7 3 9 4 7 12 11 10 6 9 6 7 7 11 13 16 11 21 19 16 23 17 27 17 10 3 9 20 25 25 23 21
24 25 27 28 30 31 30 31 32 28 20 10 4 2 2 2 4 13 9 10 9 7 8 9 9 7 5 14 10 9 18 21 19 18 22 15 17 15 9 13 22 22 22 19 18
24 25 26 28 29 30 29 32 31 20 11 5 3 2 3 6 9 9 11 11 9 10 8 11 9 8 6 7 9 11 10 13 20 19 24 14 25 13 17 21 18 20 22 20 20
24 26 26 27 29 28 27 29 22 6 21 1 5 2 4 9 11 15 8 11 11 9 9 11 5 10 8 8 10 6 15 16 13 18 17 22 12 19 17 21 20 20 20 18 20
25 26 27 29 29 25 24 17 13 9 12 5 6 2 4 11 10 15 11 12 8 8 8 2 2 8 4 8 11 7 10 11 15 13 19 19 11 18 17 18 21 20 19 17 19
25 26 29 29 26 17 17 5 11 9 10 2 4 3 10 13 12 10 10 10 3 1 6 3 4 14 17 15 20 15 15 17 11 14 13 24 20 19 19 19 18 20 22 18 18
25 27 29 29 25 9 9 8 4 5 6 4 9 9 13 8 8 11 10 9 6 17 9 3 12 16 13 14 15 17 15 15 12 13 8 7 27 15 15 15 23 24 21 21 18
24 27 28 29 17 6 12 8 2 5 2 8 6 4 10 6 6 11 11 10 7 7 10 7 10 17 8 10 13 13 16 7 10 10 7 14 7 12 3 7 11 13 19 21 26
24 25 27 31 4 9 3 7 2 4 2 12 11 8 14 20 2 5 6 4 4 8 9 7 4 8 11 12 13 11 11 7 7 1 6 3 10 8 10 11 11 16 17 18 16
25 25 24 13 7 6 6 8 2 2 3 21 8 6 18 8 10 16 5 3 8 12 5 5 11 15 10 8 11 7 12 12 10 3 2 2 4 6 10 13 13 13 14 13 12
24 26 23 4 5 4 8 2 3 3 4 10 13 16 16 9 10 16 9 10 3 9 6 10 9 6 8 3 3 9 8 7 3 2 3 8 7 7 9 3 10 8 14 14 16
24 26 13 2 12 12 4 2 4 8 9 11 11 14 18 15 9 13 11 18 19 14 13 10 5 7 10 7 7 9 4 3 3 5 6 1 4 3 9 11 0 18 18 14 14
25 19 4 3 10 6 3 4 9 2 5 5 9 19 5 15 8 13 12 17 5 12 8 9 10 16 14 3 1 1 1 3 3 4 1 5 6 2 7 8 7 11 11 11 12
18 7 3 9 11 2 7 10 2 3 5 9 14 6 6 9 9 12 11 13 7 14 9 7 4 7 4 7 2 2 4 2 5 3 3 3 4 3 8 11 8 11 11 8 8
8 6 4 16 7 7 9 5 4 1 4 2 4 4 6 11 12 13 15 4 15 14 9 5 7 2 8 7 4 3 3 4 5 2 4 5 3 3 5 3 6 7 7 5 6
3 4 4 14 5 12 6 2 1 2 3 1 2 4 5 6 5 5 9 6 17 17 11 6 3 9 3 7 6 8 4 5 3 3 3 4 0 5 7 4 9 8 8 9 8
2 3 6 6 6 4 3 2 3 2 3 1 2 3 4 8 5 5 6 2 14 12 13 4 4 6 4 3 1 2 3 1 1 1 4 3 1 7 5 6 9 10 7 6 8
2 3 4 5 3 2 2 0 1 4 2 2 2 1 3 4 5 6 7 9 17 13 16 9 4 7 6 3 4 6 7 4 2 2 4 2 1 3 4 6 5 11 8 7 8
2 3 5 6 3 5 2 1 3 3 1 2 2 3 6 4 3 7 7 8 21 8 16 2 0 2 3 4 5 6 10 9 2 2 3 2 4 4 5 3 6 9 8 8 8
2 1 1 0 1 4 3 2 2 4 1 3 1 2 4 4 7 3 5 14 7 9 12 5 3 5 10 7 2 4 7 12 6 2 1 8 6 5 3 5 8 8 7 7 7
4 4 2 4 5 5 2 4 2 3 2 2 3 7 8 5 8 12 13 8 4 10 9 11 3 8 3 4 4 3 11 7 8 8 11 11 9 3 4 6 7 7 8 8 6
3 2 5 6 5 4 4 5 5 1 3 7 4 7 10 9 7 15 14 11 11 10 9 6 8 7 1 8 2 0 6 4 2 5 2 1 2 5 5 5 5 6 7 7 5
Wind_Direction
13 9 5 2 356 354 353 351 347 345 342 339 338 338 337 334 331 353 341 233 3 346 344 334 336 324 321 244 218 168 231 245 238 218 226 216 225 301 49 127 66 351 154 155 145
9 6 2 359 355 351 349 347 344 343 339 338 336 336 332 335 332 353 277 262 9 14 16 8 344 325 281 262 224 206 223 239 208 208 267 240 271 285 229 150 64 67 103 134 140
8 3 0 357 353 349 345 342 342 340 338 339 339 339 335 342 4 29 18 37 358 356 340 322 309 305 279 257 231 231 232 222 255 318 315 295 313 276 242 217 199 155 147 147 144
4 1 358 354 350 347 341 338 339 339 339 343 345 348 336 344 6 335 338 324 334 343 355 348 337 316 268 258 260 256 248 239 244 286 297 299 318 322 251 266 170 159 155 153 145
1 358 356 353 347 345 340 334 336 338 339 340 345 353 2 11 268 294 312 315 324 328 313 311 297 280 269 272 271 257 269 274 270 252 261 280 274 269 288 276 140 148 157 155 147
0 356 353 350 346 342 339 331 332 335 329 328 341 351 46 26 247 297 344 333 326 296 274 258 251 253 280 267 262 278 288 273 268 248 240 248 260 254 261 149 148 158 163 155 146
357 355 351 347 345 340 336 329 329 331 323 322 347 25 71 261 297 325 332 306 286 282 293 254 251 239 270 293 275 298 282 277 267 252 240 234 239 242 194 147 159 165 164 150 141
355 352 350 345 344 338 334 326 329 331 27 48 350 85 304 264 297 295 323 316 283 262 263 275 257 237 236 261 290 298 285 269 257 235 238 241 244 237 177 151 166 167 166 154 148
354 349 347 345 342 338 333 325 338 17 344 168 99 91 10 324 336 302 295 292 300 280 273 262 246 240 265 267 272 236 252 252 268 212 210 211 222 211 183 165 164 168 168 158 144
352 347 344 346 341 343 333 338 332 14 354 87 86 94 310 312 301 294 281 284 297 317 323 58 257 232 254 228 259 238 244 233 242 211 204 214 222 191 178 176 173 163 171 158 153
350 347 343 344 342 353 355 22 21 355 26 329 302 259 270 288 289 312 337 315 325 278 302 300 232 234 242 231 249 257 270 283 305 261 182 197 246 197 201 176 175 166 171 160 161
348 346 341 341 341 24 26 61 135 258 317 277 253 259 269 256 315 355 350 332 334 309 324 274 261 254 251 256 239 244 259 265 287 274 170 193 209 208 168 182 179 163 165 165 149
347 344 343 337 335 41 73 56 245 156 265 312 257 295 330 327 329 326 0 344 314 317 320 276 263 311 245 254 239 243 237 248 263 328 147 202 241 182 49 112 142 157 165 167 157
343 343 343 335 34 341 44 342 345 137 68 360 345 0 349 329 356 318 352 21 321 308 316 280 284 317 309 221 210 241 215 216 240 277 167 183 214 201 171 147 153 155 156 158 148
340 339 340 342 310 351 310 331 343 80 326 326 329 317 326 6 300 338 349 3 314 315 302 293 309 320 270 240 186 221 175 201 209 208 104 77 125 174 156 177 174 155 145 130 113
337 334 336 343 323 271 324 358 73 26 349 335 337 337 354 347 343 339 15 8 243 309 245 261 289 356 321 350 338 111 92 85 97 89 233 194 139 200 187 178 159 154 141 134 117
334 331 327 303 325 327 359 66 13 53 0 332 333 332 329 332 337 360 351 22 32 348 355 323 334 6 354 46 357 43 76 84 98 175 222 268 92 53 352 349 1 170 149 129 117
333 329 327 253 316 333 37 38 54 288 316 300 311 314 351 4 342 342 357 13 357 11 311 352 348 354 344 8 355 202 318 112 146 201 236 195 129 12 13 28 66 102 107 109 106
338 336 334 327 340 56 56 50 131 218 287 312 323 352 329 351 354 357 5 12 346 356 344 340 304 328 313 320 348 343 36 318 104 340 45 97 89 120 60 61 79 104 112 111 114
335 334 303 335 11 55 65 117 169 18 319 357 341 351 323 333 347 351 356 20 352 350 336 334 298 1 317 346 353 19 325 348 25 75 51 38 57 35 7 93 113 129 143 133 126
17 346 318 345 54 52 78 128 250 303 10 341 303 299 298 332 308 302 347 316 12 334 337 326 338 315 3 22 348 349 13 25 98 53 108 133 309 359 314 267 172 162 157 158 161
38 317 340 21 44 40 97 174 295 320 4 350 264 277 298 315 296 295 335 328 359 345 335 314 325 311 306 296 236 284 328 5 33 60 60 94 171 349 321 299 180 152 156 154 155
357 290 352 58 80 69 330 26 340 351 335 336 323 340 284 289 310 292 325 321 1 354 350 332 359 334 342 350 27 23 348 357 36 68 47 109 234 49 45 67 110 154 141 145 147
38 326 9 53 95 123 143 20 339 350 209 343 272 18 341 323 265 296 316 336 331 349 347 320 317 327 331 312 300 336 347 351 41 45 122 71 129 6 61 123 146 150 146 143 150
74 228 179 59 108 121 138 147 324 345 316 348 172 60 342 286 304 283 315 327 324 358 353 43 352 328 296 287 305 3 7 14 55 28 302 159 109 33 67 170 162 155 154 153 158
178 162 92 143 142 144 200 198 223 283 231 252 240 308 301 260 268 303 321 324 309 332 2 353 313 349 294 358 6 67 21 23 36 39 85 103 76 70 96 124 141 163 173 180 187
165 125 145 167 158 174 220 184 198 166 256 236 251 307 286 278 287 285 276 265 264 293 329 340 352 2 292 350 340 1 355 10 0 26 18 195 116 141 103 122 168 192 199 207 189